全球星 M033星 (GLOBALSTAR M033)

导读

GLOBALSTAR M033是全球星(Globalstar)低轨移动通信卫星星座的成员,由美国主导运营,于1999年9月22日发射入轨。作为第一代全球星系统的卫星,它运行在约1414千米高度的倾斜轨道,提供全球范围的数字语音、数据、传真等移动通信服务,与地面网络兼容,支持漫游业务,支撑南北纬70度以内区域的卫星通信覆盖,助力全球无缝移动通信连接。

Basic Information
目录编号:
25909
目录名称:
GLOBALSTAR M033
国际标识:
1999-049C
轨道中心:
EARTH
卫星名称:
全球星 M033星
卫星全名:
全球星 M033星 (GLOBALSTAR M033)
卫星状态:
在轨 (已飞行9764 天)
发射日期:
1999-09-22 UTC
国别 :
(GLOB)
星等 :
--
Orbit Information
数据来源 国际轨道数据 AOE轨道数据
星历时间 2026-06-16T06:39:14+0800
13小时前
查看轨道信息
2026-06-16T00:00:00+0800
20小时前
查看轨道信息
半长轴 7969.325km 7969.323km
偏心率 0.001348 0.0013518
轨道倾角 51.993° 51.993°
近地点辐角 294.878° 293.412°
升交点赤经 45.040° 45.821°
平近点角 65.067° 287.993°
近地点 1580.445km 1580.413km
远地点 1601.931km 1601.959km
周期 118.003分钟 118.003分钟
每日圈数 12.203108 12.203113
Detailed Information
固有亮度:
5
最大亮度:
7.9
平衡模式:
三轴稳定
覆盖范围:
全球
运营商:
全球星公司
运营商所在国:
美国
使用方式:
暂无
Satellite Introduction
全球星星座由48颗卫星加8颗备份星组成。这些卫星分布在8个倾角为52度的圆形轨道平面上,每个轨道平面6颗卫星,另有1 颗备用星。轨道高度约为1414km,传输时延和处理时延小于300ms,整个系统的覆盖区为南北纬70度以内的地区。该卫星已退役。
2D Orbit Map
3D Orbit Map
Orbit Altitude Analysis Chart
Orbit Inclination Analysis Chart
Orbit Comprehensive Analysis Chart
View Comprehensive Chart